Other Surface Observations
Issued by NWS Charleston, SC

Home | Current Version | Previous Version | Text Only | Print | Product List | Glossary On
Versions: 1 2 3 4 5 6 7 8 9 10 11 12 13 14 15 16 17 18 19 20 21 22 23 24 25 26 27 28 29 30 31 32 33 34 35 36 37 38 39 40 41 42 43 44 45 46 47 48 49 50
000
SXUS52 KCHS 290428
OSOCHS

MARINE OBSERVATIONS
NATIONAL WEATHER SERVICE CHARLESTON SC
1200 AM EDT SUN MAY 29 2016

...DOWNTOWN CHARLESTON AND HARBOR...

CITY           SKY/WX    TMP DP  RH WIND       PRES   REMARKS
WATERFRONT PRK   N/A     71  71 100 N13       29.99F

...LAKE MOULTRIE...

CITY           SKY/WX    TMP DP  RH WIND       PRES   REMARKS
PINOPOLIS        N/A     73  72  94 NE16      29.97F

...LAKE AND SUPPLEMENTAL COASTAL OBSERVATIONS...

STATION/POSITION TIME  TEMP    WIND        PRES    WAVE   SWELL
                       AIR SEA DIR/SP/G            HT/PER HT/PER/DIR
                 (UTC) (F)     (DEG/KT/KT) (MB)    (FT/S) (FT/S/D)
FORT PULASKI     0400   71 77  330/  9/ 13 1016.7R
SAPELO ISLAND    0400   72     320/ 10     1017.0S
WINYAH BAY       0300   74      50/ 14     1016.0
LAKE MURRAY      0400   71      CALM  /  2 1019.0F
ACE BASIN NERRS  0300   69     350/  4     1017.0S


...C-MAN AND BUOY OBSERVATIONS...

STATION/POSITION TIME  TEMP    WIND        PRES    WAVE   SWELL
                       AIR SEA DIR/SP/G            HT/PER HT/PER/DIR
                 (UTC) (F)     (DEG/KT/KT) (MB)    (FT/S) (FT/S/D)
BUOY 41004       0350   76 78   80/ 14/ 16 1014.5R   8/ 8   5/ 8
BUOY 41008       0350   73 76  350/ 17/ 21 1015.8R   7/ 6
FOLLY BEACH CMAN 0400   73      30/ 18/ 21 1015.9F
CAPERS NS BUOY   0408   75 75   50/ 19/ 25 1016.4F
FRIPP NS BUOY    0408   71 76  360/ 25/ 31 1014.3F
5E ST. MARYS GA  0401      78                N/A     6/ 8


STATION/POSITION TIME  TEMP    WIND        PRES    WAVE   SWELL
                       AIR SEA DIR/SP/G            HT/PER HT/PER/DIR
                 (UTC) (F)     (DEG/KT/KT) (MB)    (FT/S) (FT/S/D)
FRYING PAN BUOY  0400   78 77  110/ 16/ 19 1016.6F
BUOY 41025       0350   78 78  140/ 14/ 16 1019.9F   5/ 9   3/110/ 9
CAPE LOOKOUT NC  0400   75     100/  9/  9 1019.1F
BUOY 41002       0350   75 75  130/ 16/ 17 1018.7R   5/ 6
BUOY 41010       0320   78 79  200/  6/  8 1017.0R
ST AUGUSTINE FL  0400   75 79  360/ 13/ 14 1018.1R

$$




USA.gov is the U.S. government's official web portal to all federal, state and local government web resources and services.